Location: Unspecified
(17.6330°N, 0.0000°E)
Time: 01:27:40
(UTC+00:00)

S-56A Canister/Altair - Pass Details

Date: 27 June 2019
Orbit: 633 x 2499 km, 38.9° (Epoch: 13 October)

Event Time Altitude Azimuth Distance (km) Brightness Sun altitude
Rises 12:37:29 0° 239° (WSW) 6,169 12.2 80.1°
Reaches altitude 10° 12:41:41 10° 242° (WSW) 5,111 11.9 79.3°
Maximum altitude 12:56:13 69° 323° (NW) 2,194 12.2 76.3°
Drops below altitude 10° 13:06:47 10° 47° (NE) 3,821 11.2 74.0°
Sets 13:09:29 0° 50° (NE) 4,580 11.4 73.5°
